Location: *
(43.1611°N, 0.1156°E)
Time: 13:08:19
(UTC+00:00)

Daily predictions for brighter satellites

Satellite Brightness Start Highest point End
(mag) Time Altitude Azimuth Time Altitude Azimuth Time Altitude Azimuth
DELTA 2 R/B (1) 3.8 19:55:05 10° WSW 20:00:33 55° S 20:06:01 10° E
Cosmos 44 Rocket 3.9 19:56:42 10° SW 20:01:48 68° NW 20:06:51 10° NNE
Lacrosse 5 rocket 4.1 20:00:20 10° NNW 20:03:09 16° N 20:05:58 10° NE
Cosmos 407 Rocket 4.1 19:59:35 10° SSE 20:04:22 36° ESE 20:09:14 10° NE
Cosmos 1515 Rocket 4.3 20:01:44 10° N 20:05:46 36° ENE 20:09:46 10° SE
Cosmos 921 Rocket 3.0 20:02:28 10° NNW 20:06:47 81° ENE 20:11:09 10° SSE
Lacrosse 5 4.3 20:04:17 10° NW 20:07:39 17° N 20:11:00 10° NE
Cosmos 1825 3.6 20:05:21 10° SE 20:08:08 20° E 20:10:57 10° NE
Okean 3 Rocket 4.3 20:04:11 10° SSW 20:08:40 61° W 20:13:10 10° N
Cosmos 1766 Rocket 3.6 20:04:42 10° S 20:09:01 83° W 20:13:22 10° N
Cosmos 1408 Rocket 3.5 20:06:49 10° S 20:11:05 69° E 20:15:23 10° NNE
USA 215 3.3 20:05:10 10° NE 20:11:41 65° SE 20:18:11 10° SW
ISS -1.7 20:08:58 10° W 20:11:59 31° NNW 20:15:01 10° NE
Cosmos 2219 Rocket 3.4 20:08:51 10° SSE 20:13:00 21° E 20:17:10 10° NE
Resurs 1-3 3.6 20:08:51 10° SSE 20:13:14 89° WSW 20:17:39 10° NNW
Cosmos 2034 Rocket 4.2 20:07:22 10° SSE 20:13:25 55° E 20:19:34 10° NNE
ARGOS 3.2 20:08:05 10° SSE 20:13:30 87° WSW 20:18:56 10° NNW
Cosmos 1190 Rocket 4.4 20:10:39 10° S 20:15:27 40° ESE 20:20:19 10° NE
CZ-2C R/B 3.3 20:10:23 10° SSE 20:15:30 53° ENE 20:20:22 10° N
SL-4 R/B 2.5 20:10:44 10° WSW 20:15:34 86° NNW 20:20:27 10° ENE
Cosmos 2084 Rocket 4.4 20:14:13 10° NNW 20:18:19 37° NE 20:22:15 10° ESE
H-2A R/B 2.3 20:13:18 10° S 20:18:42 77° WSW 20:24:03 10° NNW
Cosmos 2322 Rocket 3.1 20:14:03 10° SW 20:19:38 56° WNW 20:25:15 10° NNE
Cosmos 1151 Rocket 3.0 20:18:59 10° N 20:23:25 79° E 20:27:46 10° SSE
SL-16 R/B 3.7 20:23:59 10° SW 20:29:20 42° WNW 20:34:43 10° NNE
Cosmos 2278 Rocket 4.0 20:26:23 10° N 20:30:13 18° NE 20:34:02 10° E
Cosmos 1844 Rocket 3.0 20:25:48 10° NNW 20:31:26 58° ENE 20:36:21 13° SE
MetOp-B 4.4 20:27:35 10° SSE 20:32:49 57° ENE 20:38:04 10° N
EP 3 4.4 20:30:52 10° S 20:32:52 31° ESE 20:34:49 10° NE
Cosmos 1464 Rocket 4.3 20:30:07 10° SSW 20:36:21 73° W 20:42:33 10° N
BREEZE-M DEB (TANK) 3.8 20:33:19 10° SW 20:36:57 57° SE 20:48:48 10° ENE
Cosmos 2151 4.3 20:33:27 10° SSW 20:37:33 44° WNW 20:41:41 10° N
Cosmos 2263 Rocket 4.0 20:33:15 10° NW 20:38:01 28° WSW 20:42:47 10° SSW
BREEZE M DEB (TANK) 4.1 20:34:08 10° WNW 20:38:39 22° WSW 20:40:57 10° S
Cosmos 2333 Rocket 2.8 20:34:57 10° S 20:40:04 35° ESE 20:45:11 10° NE
USA 245 3.6 20:40:02 19° E 20:40:44 22° ENE 20:42:40 10° NNE
EO 1 Del DPAF 4.0 20:38:30 10° NNE 20:41:55 31° E 20:44:20 16° SSE
Cosmos 1408 2.5 20:40:17 10° S 20:43:59 77° E 20:47:43 10° N
Spot 2 Rocket 3.5 20:39:47 10° SSE 20:44:54 86° ENE 20:50:02 10° NNW
USA 267 3.8 20:39:11 10° ESE 20:45:30 52° NNE 20:51:49 10° NW
Cosmos 2322 3.6 20:41:05 10° SSW 20:46:43 76° ESE 20:52:24 10° NNE
Sich 1 4.3 20:48:23 18° ESE 20:50:06 23° E 20:53:28 10° NE
NOSS 8 (A) 4.1 20:47:54 10° SSW 20:51:15 75° SE 20:54:20 10° NE
MTI 4.1 20:48:55 10° N 20:52:05 67° WNW 20:55:13 10° SSW
Cosmos 1892 4.3 20:49:46 10° SW 20:53:18 35° WNW 20:56:51 10° N
NOSS 3-1 (C) 3.3 20:48:25 10° SSW 20:53:55 85° SE 21:00:17 10° NE
Cosmos 1356 Rocket 3.4 20:50:42 10° N 20:55:01 81° ENE 20:58:18 17° SSE
Meteor 2-3 Rocket 3.9 20:51:39 10° S 20:57:19 58° E 21:03:01 10° NNE
Cosmos 2228 Rocket 3.2 20:53:01 10° N 20:57:37 87° WSW 21:01:29 15° S
DMSP B5D2-2 4.2 20:54:29 10° N 20:59:43 77° WNW 21:04:54 10° SSW
Cosmos 1023 Rocket 4.4 20:57:04 10° SSW 21:02:13 78° ESE 21:07:27 10° NNE
Cosmos 1500 Rocket 3.9 21:00:32 10° SSW 21:04:59 70° W 21:09:28 10° N
Resurs 01 Rocket 3.3 21:04:02 10° SSW 21:07:56 30° W 21:11:51 10° NW
Meteor 1-26 Rocket 4.2 21:03:03 10° N 21:08:39 73° E 21:12:25 21° SSE
SPOT 1/Viking Rocket 3.7 21:06:17 22° SE 21:09:35 59° ENE 21:14:43 10° N
Cosmos 292 Rocket 3.8 21:04:45 10° NNW 21:09:37 81° WSW 21:12:46 21° SSE
Cosmos 1933 3.7 21:09:55 10° NNW 21:13:56 64° W 21:16:45 18° S
ADEOS Rocket 3.7 21:09:12 10° N 21:14:31 50° WNW 21:19:48 10° SW
ATLAS CENTAUR R/B 2.9 21:10:35 10° NNW 21:14:46 30° NE 21:17:15 18° E
Landsat 7 3.8 21:16:10 26° SSE 21:18:51 72° ENE 21:23:37 10° N
SPOT 5 3.0 21:20:06 27° SE 21:22:38 60° ENE 21:27:18 10° N
SL-16 R/B 4.2 21:23:40 11° E 21:23:40 11° E 21:24:46 10° ENE
COSMOS 2455 4.0 21:25:34 23° ESE 21:26:05 23° ESE 21:30:38 10° NE
Cosmos 1818 3.6 21:21:00 10° NW 21:26:29 76° WSW 21:29:22 28° SSE
Cosmos 676 Rocket 4.1 21:22:05 10° SSW 21:27:17 78° WNW 21:32:35 10° NNE
Cosmos 1844 3.9 21:22:01 10° NNW 21:27:36 66° WSW 21:31:04 24° S
Cosmos 1980 4.2 21:27:34 28° SSE 21:29:49 39° ESE 21:35:04 10° NE
Cosmos 2360 Rocket 4.0 21:24:52 10° WSW 21:29:54 33° NW 21:34:58 10° N
Cosmos 1140 Rocket 3.9 21:25:06 10° SSW 21:30:13 62° WNW 21:35:24 10° NNE
COSMOS 2428 2.7 21:26:30 10° SSW 21:32:14 84° WNW 21:38:00 10° NNE
CZ-2C R/B 2.8 21:28:36 10° N 21:33:48 71° WNW 21:38:55 10° SSW
SL-8 R/B 4.4 21:30:20 10° WNW 21:34:45 38° SW 21:36:14 30° S
Cosmos 1607 4.1 21:28:49 10° NW 21:34:55 65° WSW 21:38:18 27° SSE
Mayak 0.9 21:33:12 10° ENE 21:34:46 13° E 21:34:46 13° E
Cosmos 2237 Rocket 2.6 21:33:56 31° SSE 21:35:51 40° ESE 21:41:05 10° NE
NOSS 3-1 (A) 3.5 21:32:13 10° SW 21:37:45 75° NW 21:44:10 10° NE
Cosmos 1954 Rocket 4.3 21:32:58 10° SSW 21:38:11 69° WNW 21:43:28 10° NNE
Cosmos 1707 Rocket 3.5 21:34:52 10° N 21:39:21 72° E 21:40:52 40° SSE
Cosmos 1606 3.5 21:36:39 10° NNW 21:40:15 45° W 21:42:00 26° SSW
ERS-1 Rocket 3.1 21:37:32 27° S 21:40:18 71° WSW 21:45:21 10° NNW
Cosmos 1741 Rocket 4.2 21:38:50 33° SSE 21:40:49 51° ESE 21:45:52 10° NNE
NOSS 0 Rocket 3.9 21:38:09 20° S 21:42:23 60° ESE 21:48:26 10° NNE
Cosmos 1825 4.2 21:40:19 10° SW 21:43:30 26° WNW 21:46:42 10° NNW
Lacrosse 5 rocket 2.8 21:39:20 10° NW 21:43:34 35° NNE 21:45:58 21° E
DELTA 2 R/B (1) 3.6 21:41:14 10° W 21:46:43 57° S 21:48:46 36° SE
Terra 1.8 21:46:32 40° SSE 21:48:10 71° ENE 21:52:56 10° N
NOSS 2-3 (E) 3.6 21:44:15 11° SSW 21:48:24 85° SE 21:53:32 10° NE
Cosmos 1850 Rocket 4.0 21:46:01 32° S 21:48:27 63° ESE 21:53:45 10° NNE
Cosmos 2279 Rocket 3.9 21:45:33 26° S 21:49:14 79° E 21:55:27 10° N
ISS -1.0 21:46:57 10° NW 21:49:24 19° N 21:51:51 10° NE
Cosmos 1867 3.5 21:45:20 10° SSW 21:50:48 88° WNW 21:56:20 10° NNE
NOSS 2-3 (D) 3.6 21:47:52 15° SSW 21:51:29 85° SE 21:56:35 10° NE
Lacrosse 5 3.2 21:47:21 10° NW 21:51:58 34° NNE 21:55:07 18° E
ATLAS 5 CENTAUR R/B 4.2 21:49:32 10° NNW 21:53:45 21° NE 21:58:21 10° E
USA 215 4.3 21:48:21 10° NE 21:54:32 47° NNW 22:00:43 10° W
SL-4 R/B 4.1 21:51:23 10° W 21:55:49 34° NNW 22:00:11 10° NE
Cosmos 1782 3.0 21:52:16 10° NNW 21:56:16 68° W 21:57:16 47° SSW
Cosmos 2219 Rocket 2.8 21:50:54 10° SW 21:56:28 57° WNW 22:02:04 10° NNE
Meteor 2-6 Rocket 4.1 21:54:45 10° N 22:00:16 81° ENE 22:02:19 41° SSE
Meteor 1-10 Rocket 4.2 21:56:27 10° N 22:02:09 77° E 22:04:15 41° SSE
Cosmos 1400 Rocket 3.9 22:02:11 10° N 22:05:56 33° ENE 22:06:03 33° ENE
Cosmos 1763 Rocket 3.8 22:00:58 10° NNW 22:06:04 53° ENE 22:07:29 41° ESE
Cosmos 1862 3.2 22:07:36 69° ESE 22:07:46 71° E 22:11:45 10° NNE
ASTEX 1 3.4 22:03:38 10° N 22:08:40 88° W 22:10:21 43° S
MOS 1 Rocket 3.2 22:08:09 10° N 22:12:48 86° WNW 22:14:20 44° SSW
Cosmos 1633 2.8 22:14:20 60° NE 22:14:20 60° NE 22:17:27 10° NNE
CARTOSAT-1 4.4 22:13:14 34° SW 22:14:27 42° W 22:18:34 10° NNW
Cosmos 2278 Rocket 2.1 22:09:21 10° NNW 22:15:02 83° WSW 22:16:44 47° SSE
Cosmos 1633 Rocket 3.3 22:15:51 43° SW 22:17:04 62° W 22:21:24 10° N
Cosmos 468 Rocket 3.9 22:11:54 10° NNW 22:17:13 88° ENE 22:18:31 53° SSE
Spot 4 4.5 22:17:26 38° E 22:18:12 41° ENE 22:22:41 10° N
Cosmos 1666 Rocket 4.3 22:17:40 30° SW 22:19:30 49° WNW 22:23:52 10° N
Cosmos 1933 Rocket 3.7 22:21:34 57° E 22:21:34 57° E 22:25:52 10° NNE
Cosmos 2333 Rocket 3.6 22:19:02 10° WSW 22:24:17 37° NW 22:29:33 10° N
USA 267 3.5 22:26:24 40° S 22:28:28 55° SW 22:34:54 10° NW
ATLAS 2AS CENTAUR R/B 4.3 22:29:56 21° ESE 22:29:56 21° ESE 22:35:19 10° ENE
Cosmos 2242 Rocket 3.5 22:31:28 10° N 22:36:03 86° E 22:36:19 79° SSE
Cosmos 2369 Rocket 4.4 22:32:51 10° N 22:36:32 17° NE 22:39:59 11° E
Cosmos 1862 Rocket 3.6 22:32:57 10° NNW 22:37:16 65° W 22:37:33 63° WSW
Meteor 2-13 Rocket 4.3 22:31:49 10° N 22:37:58 84° E 22:39:33 53° SSE
Cosmos 1470 Rocket 3.7 22:39:14 62° WSW 22:39:40 67° W 22:44:04 10° N
ALOS 2 3.9 22:40:29 28° ENE 22:40:40 28° ENE 22:44:25 10° N
Helios 1A 3.0 22:41:57 68° NE 22:41:57 68° NE 22:45:55 10° N
Meteor 1-27 Rocket 3.8 22:41:16 10° NNW 22:47:12 75° W 22:48:37 53° SSW
ARGOS Delta rocket 3.8 22:53:25 65° ENE 22:53:25 65° ENE 22:58:00 10° N
ATLAS CENTAUR R/B 2.5 22:49:34 10° NW 22:53:26 36° WSW 22:53:26 36° WSW
GP-B 3.0 22:52:12 10° N 22:56:29 82° NNE 22:56:29 82° NNE
BREEZE-M DEB (TANK) 3.6 22:56:38 10° NW 22:59:35 50° NNE 23:08:30 10° E
Cosmos 1812 3.4 22:55:52 10° NNW 22:59:04 52° NW 22:59:04 52° NW
Cosmos 2208 Rocket 4.3 22:56:05 10° NNW 23:01:24 57° WSW 23:01:58 54° SW
Lacrosse 4 Rocket 1.6 23:02:34 73° NW 23:02:34 73° NW 23:07:00 10° NNE
Helios 1B rocket 3.3 23:01:09 10° NNE 23:04:16 43° NE 23:04:16 43° NE
SL-16 R/B 2.1 23:05:31 68° S 23:06:15 84° ESE 23:11:57 10° NNE
Cosmos 540 Rocket 3.3 23:03:28 10° NNW 23:08:37 85° ENE 23:08:50 81° SE
Cosmos 1814 Rocket 3.9 23:04:45 10° NNW 23:09:52 70° WSW 23:10:02 69° WSW
Mayak -0.7 23:07:12 10° N 23:11:20 53° WNW 23:11:21 53° WNW
COSMOS 2455 3.2 23:08:39 31° SW 23:11:30 62° NW 23:17:31 10° NNE
Gbstr 26 Del rocket 3.8 23:08:15 10° NW 23:11:41 40° NNE 23:11:41 40° NNE
Cosmos 2237 Rocket 3.7 23:15:41 13° WSW 23:20:00 32° NW 23:25:01 10° N
SeaSat 1 3.1 23:17:43 10° NE 23:21:40 43° E 23:21:40 43° E
Lacrosse 5 rocket 2.7 23:18:33 10° WNW 23:21:35 34° W 23:21:35 34° W
Terra 4.2 23:25:25 12° WSW 23:26:25 13° W 23:28:30 10° WNW
ISS -1.6 23:23:49 10° NW 23:25:59 26° N 23:25:59 26° N
Cosmos 1244 Rocket 4.4 23:21:04 10° N 23:27:27 89° WSW 23:28:30 65° S
Cosmos 2285 Rocket 4.3 23:27:14 40° SW 23:29:23 60° WNW 23:35:37 10° NNE
Lacrosse 5 2.4 23:30:12 10° NW 23:34:17 49° W 23:34:17 49° W
SL-4 R/B 4.2 23:32:14 10° NW 23:36:31 30° N 23:40:38 10° ENE
Cosmos 1943 Rocket 2.9 23:32:26 10° NNW 23:37:43 44° ENE 23:38:50 39° E
Cosmos 1553 Rocket 3.8 23:38:30 69° SSE 23:39:12 78° E 23:45:20 10° N
ATLAS 5 CENTAUR R/B 2.4 23:33:21 10° NW 23:39:14 79° NE 23:40:28 60° SE
CENTAUR R/B 4.2 23:37:30 10° NNW 23:44:50 40° NE 23:52:46 10° ESE
Cosmos 841 Rocket 4.5 23:40:23 10° NW 23:44:44 34° W 23:44:44 34° W
Cosmos 1417 Rocket 4.3 23:44:54 68° S 23:45:47 87° E 23:52:04 10° N
Cosmos 1315 Rocket 4.2 23:42:02 10° NNW 23:44:46 34° NW 23:44:46 34° NW
Okean 1-7 4.1 23:41:57 10° NNW 23:45:20 37° WNW 23:45:20 37° WNW
S3M 4.0 23:45:38 63° SE 23:46:31 71° E 23:52:53 10° NNE
Cosmos 968 Rocket 3.6 23:51:00 62° ENE 23:51:00 62° ENE 23:55:41 10° NNE
Cosmos 1486 Rocket 4.2 23:50:34 61° W 23:51:01 63° WNW 23:56:17 10° NNE
NOSS 3-2 (A) 4.2 23:43:29 10° NNW 23:51:01 70° NE 23:54:50 35° SE
ERS-2 3.5 23:55:07 38° N 23:55:07 38° N 23:57:30 10° N
Cosmos 2278 Rocket 4.5 23:56:35 10° W 23:58:10 11° W 23:58:35 11° W
